Location: Alumbaugh
(37.5976°N, 83.9299°W)
Time: 10:29:17
(UTC+00:00)

Oscar 11 - Visible Passes

Search period start: 27 March 2023 00:00
Search period end: 06 April 2023 00:00
Orbit: 608 x 622 km, 97.7° (Epoch: 26 March)

Date Brightness Start Highest point End Pass type
(mag) Time Alt. Az. Time Alt. Az. Time Alt. Az.
27 Mar 8.1 09:38:27 10° NNE 09:42:34 45° E 09:46:40 10° S visible
28 Mar 7.2 09:54:01 10° NNE 09:58:18 71° ESE 10:02:32 10° S visible
29 Mar 6.9 10:09:42 10° N 10:13:58 75° WNW 10:18:14 10° SSW visible
30 Mar 10.0 08:51:29 10° ENE 08:53:21 13° E 08:55:12 10° ESE visible
30 Mar 7.3 10:25:30 10° N 10:29:37 48° WNW 10:33:43 10° SSW visible
31 Mar 9.6 09:06:05 10° NE 09:09:09 19° E 09:12:13 10° SE visible
31 Mar 7.8 10:41:25 10° N 10:45:13 32° WNW 10:49:00 10° SW visible
01 Apr 8.9 09:21:12 10° NE 09:24:55 28° E 09:28:38 10° SSE visible
01 Apr 8.3 10:57:30 10° NNW 11:00:46 22° WNW 11:04:02 10° WSW visible
02 Apr 8.1 09:36:33 10° NNE 09:40:39 43° E 09:44:44 10° S visible
03 Apr 7.3 09:52:04 10° NNE 09:56:20 68° E 10:00:36 10° S visible
04 Apr 6.9 10:07:42 10° N 10:12:00 78° WNW 10:16:16 10° SSW visible
05 Apr 10.0 08:49:36 10° ENE 08:51:19 12° E 08:53:02 10° ESE visible
05 Apr 7.3 10:23:27 10° N 10:27:36 50° WNW 10:31:44 10° SSW visible
